SAMSAT-IONOSPHERE (RS7*)

Last updated on Sun Aug 09 2026 00:03:16 GMT+0000 (Coordinated Universal Time)

1 61784U 24199BB 26220.59469635 .00036026 00000+0 40499-3 0 9995 2 61784 97.2854 97.8731 0009930 90.8984 269.3413 15.62465843145739
UTC large
Height (km)
Speed (km/s)
/
Latitude / Longitude
Inclination (degrees)
Orbital Period (minutes)
Azimuth
Elevation
Range (km)
Doppler Factor

Next 0 passes for location: London (51.5072 / 0.1276)

No passes found over London.
SAMSAT-IONOSPHERE (RS7*)